Temp
-7 -7 -7 -7 -7 -8 -8 -8 -8 -8 -8 -8 -8 -8 -8 -8 -8 -8 -8 -8 -8 -8 -9 -9 -9 -9 -9 -9 -9 -9 -9 -9 -9 -9 -10 -10 -10 -10 -10 -10 -10 -10 -10 -11
-7 -7 -7 -7 -7 -7 -7 -7 -7 -7 -8 -8 -8 -8 -8 -8 -8 -8 -8 -8 -8 -8 -8 -9 -9 -9 -9 -9 -9 -9 -9 -9 -9 -10 -9 -10 -10 -10 -10 -10 -10 -10 -10 -11
-6 -6 -6 -6 -6 -7 -7 -7 -7 -7 -7 -7 -7 -8 -8 -8 -8 -8 -8 -8 -8 -9 -9 -9 -9 -9 -9 -9 -9 -9 -9 -10 -10 -10 -10 -10 -10 -10 -10 -10 -10 -10 -10 -11
-6 -6 -6 -6 -6 -6 -6 -6 -6 -6 -6 -7 -7 -7 -7 -7 -7 -8 -8 -8 -8 -9 -9 -9 -9 -9 -10 -10 -10 -10 -10 -10 -10 -10 -10 -10 -10 -10 -10 -10 -10 -10 -11 -11
-6 -6 -6 -6 -6 -6 -6 -6 -6 -6 -6 -6 -7 -7 -7 -7 -7 -7 -7 -8 -8 -8 -9 -9 -9 -9 -9 -10 -10 -10 -10 -10 -10 -10 -10 -10 -10 -10 -10 -10 -10 -11 -11 -11
-5 -6 -6 -6 -6 -6 -6 -6 -6 -6 -6 -6 -7 -7 -7 -7 -7 -7 -7 -7 -8 -8 -8 -9 -9 -9 -9 -10 -10 -10 -10 -10 -10 -11 -11 -11 -11 -11 -11 -11 -11 -11 -11 -11
-5 -5 -5 -5 -6 -6 -6 -6 -6 -6 -6 -7 -7 -7 -7 -7 -7 -7 -7 -7 -7 -8 -8 -8 -8 -9 -9 -9 -9 -9 -9 -10 -10 -10 -10 -11 -11 -11 -11 -11 -11 -11 -11 -11
-5 -5 -6 -6 -6 -6 -6 -6 -6 -6 -6 -6 -7 -7 -7 -7 -7 -7 -7 -7 -7 -7 -8 -9 -9 -9 -9 -9 -9 -9 -9 -9 -9 -9 -10 -10 -10 -11 -11 -11 -11 -11 -12 -12
-6 -6 -6 -6 -6 -6 -6 -6 -6 -6 -6 -6 -7 -7 -7 -7 -7 -7 -7 -7 -8 -8 -8 -9 -9 -9 -9 -9 -9 -9 -9 -9 -9 -10 -10 -10 -10 -10 -10 -11 -12 -12 -12 -12
-6 -6 -6 -6 -6 -6 -6 -7 -7 -7 -7 -7 -7 -7 -7 -7 -7 -7 -7 -8 -7 -8 -8 -8 -9 -9 -9 -9 -9 -9 -9 -9 -10 -10 -10 -10 -10 -10 -10 -10 -11 -12 -12 -12
-6 -6 -6 -6 -6 -6 -6 -7 -7 -7 -7 -7 -7 -7 -7 -7 -7 -7 -7 -7 -8 -8 -8 -8 -9 -9 -9 -9 -9 -9 -9 -10 -10 -10 -10 -10 -10 -10 -11 -11 -11 -11 -12 -12
-6 -6 -6 -7 -6 -6 -7 -7 -7 -7 -7 -7 -7 -7 -7 -7 -7 -7 -7 -7 -8 -8 -8 -8 -9 -9 -9 -9 -9 -9 -9 -9 -10 -10 -10 -10 -11 -11 -11 -11 -11 -11 -12 -12
-6 -6 -7 -7 -7 -7 -7 -7 -7 -7 -7 -7 -7 -7 -7 -7 -7 -7 -7 -8 -8 -8 -8 -8 -9 -9 -8 -9 -9 -9 -9 -10 -10 -10 -10 -10 -11 -11 -11 -11 -11 -11 -11 -12
-6 -7 -7 -7 -7 -7 -7 -7 -7 -7 -7 -7 -7 -8 -7 -7 -7 -8 -7 -7 -8 -8 -8 -8 -9 -9 -9 -9 -9 -9 -10 -10 -10 -10 -10 -11 -11 -11 -11 -11 -11 -12 -12 -12
-7 -7 -7 -7 -7 -7 -7 -8 -8 -8 -8 -7 -8 -8 -7 -8 -8 -8 -8 -8 -8 -8 -8 -8 -9 -9 -9 -9 -9 -9 -10 -10 -10 -11 -11 -11 -11 -11 -11 -11 -11 -11 -12 -12
-7 -7 -7 -7 -7 -7 -8 -8 -8 -8 -8 -8 -8 -8 -8 -8 -8 -8 -8 -8 -8 -8 -8 -8 -9 -9 -9 -9 -9 -10 -10 -10 -10 -11 -11 -11 -11 -12 -12 -12 -11 -11 -12 -12
-7 -7 -7 -7 -7 -7 -7 -9 -9 -9 -9 -9 -8 -8 -8 -8 -8 -8 -8 -8 -8 -8 -8 -9 -9 -9 -9 -10 -10 -10 -10 -11 -11 -11 -11 -11 -11 -11 -12 -12 -12 -12 -12 -12
-8 -8 -7 -7 -7 -7 -7 -8 -9 -8 -9 -9 -9 -9 -9 -8 -8 -9 -8 -8 -8 -8 -9 -9 -9 -9 -9 -10 -10 -10 -10 -11 -11 -11 -12 -12 -11 -12 -12 -12 -12 -12 -12 -12
-8 -8 -8 -8 -8 -7 -7 -8 -8 -9 -9 -10 -9 -10 -9 -9 -8 -9 -9 -9 -9 -9 -9 -9 -9 -10 -10 -10 -10 -11 -11 -11 -11 -11 -11 -12 -12 -11 -11 -12 -12 -13 -13 -13
-9 -9 -8 -8 -8 -7 -7 -8 -9 -9 -8 -10 -10 -10 -10 -9 -9 -9 -8 -9 -9 -9 -9 -9 -9 -10 -10 -10 -10 -11 -11 -11 -12 -12 -12 -12 -11 -12 -12 -12 -12 -12 -12 -13
-9 -9 -9 -9 -8 -7 -8 -9 -9 -9 -10 -10 -10 -10 -10 -9 -9 -9 -9 -9 -9 -9 -9 -10 -10 -10 -10 -11 -11 -11 -12 -12 -12 -12 -12 -12 -12 -12 -12 -12 -12 -13 -13 -13
-9 -9 -8 -9 -8 -7 -8 -9 -9 -10 -10 -10 -11 -11 -10 -10 -10 -9 -9 -9 -9 -9 -10 -10 -10 -10 -10 -11 -11 -12 -12 -12 -12 -12 -12 -13 -12 -12 -12 -12 -12 -13 -14 -13
-9 -9 -10 -9 -8 -8 -9 -9 -9 -10 -11 -11 -11 -11 -10 -10 -10 -9 -9 -10 -10 -10 -10 -10 -10 -10 -11 -11 -11 -11 -12 -12 -12 -12 -12 -12 -12 -12 -12 -12 -13 -13 -14 -14
-9 -9 -9 -9 -8 -9 -9 -10 -10 -11 -11 -11 -11 -11 -11 -10 -10 -10 -10 -10 -10 -10 -10 -10 -11 -11 -11 -12 -12 -12 -12 -12 -12 -12 -13 -13 -13 -13 -13 -13 -13 -14 -14 -14
-10 -9 -9 -9 -9 -10 -10 -10 -11 -11 -11 -11 -11 -11 -10 -10 -10 -11 -11 -11 -11 -11 -11 -11 -11 -11 -11 -12 -12 -12 -12 -12 -12 -12 -13 -13 -13 -13 -13 -14 -14 -14 -14 -14
-10 -10 -10 -9 -10 -10 -10 -10 -11 -11 -11 -11 -10 -10 -11 -12 -11 -11 -11 -12 -12 -12 -12 -12 -12 -12 -12 -12 -12 -12 -12 -12 -12 -12 -13 -13 -14 -14 -14 -14 -14 -14 -14 -14
Height
5899 5900 5900 5900 5900 5900 5901 5901 5901 5900 5900 5899 5898 5898 5897 5896 5896 5894 5892 5892 5891 5890 5888 5887 5885 5883 5881 5879 5876 5873 5871 5868 5865 5862 5860 5857 5854 5851 5848 5845 5843 5840 5837 5834
5900 5900 5900 5899 5900 5900 5900 5900 5900 5900 5899 5899 5897 5896 5895 5895 5894 5893 5891 5891 5891 5889 5888 5886 5884 5882 5879 5877 5874 5872 5869 5866 5864 5861 5857 5855 5852 5849 5846 5843 5840 5837 5834 5831
5900 5901 5900 5900 5900 5899 5899 5899 5899 5898 5897 5897 5896 5895 5893 5893 5892 5891 5890 5889 5889 5887 5885 5884 5882 5880 5877 5875 5871 5869 5867 5864 5861 5859 5856 5853 5850 5847 5844 5840 5837 5834 5831 5828
5901 5901 5901 5901 5901 5901 5900 5899 5899 5898 5897 5896 5895 5894 5892 5892 5891 5889 5888 5886 5885 5884 5882 5880 5878 5876 5873 5871 5868 5865 5862 5860 5857 5854 5852 5849 5847 5844 5841 5838 5834 5831 5828 5824
5903 5902 5902 5902 5902 5901 5901 5900 5899 5898 5897 5896 5895 5894 5892 5890 5889 5887 5885 5883 5881 5879 5878 5876 5873 5870 5868 5866 5862 5860 5857 5854 5851 5850 5847 5844 5841 5839 5836 5833 5830 5827 5824 5820
5903 5902 5902 5902 5902 5901 5900 5900 5899 5898 5896 5895 5893 5893 5892 5889 5888 5886 5883 5881 5878 5875 5873 5871 5868 5865 5863 5860 5857 5854 5851 5848 5844 5842 5839 5836 5835 5832 5830 5827 5824 5821 5818 5815
5902 5902 5902 5902 5902 5901 5900 5899 5898 5898 5895 5893 5891 5891 5889 5887 5885 5883 5881 5878 5875 5872 5869 5866 5863 5860 5858 5854 5851 5848 5844 5841 5838 5835 5832 5829 5826 5823 5820 5818 5816 5814 5811 5807
5901 5901 5901 5901 5901 5901 5900 5899 5897 5896 5894 5892 5889 5888 5887 5884 5882 5880 5877 5875 5872 5868 5865 5862 5859 5856 5853 5850 5847 5843 5839 5836 5833 5829 5826 5822 5818 5815 5812 5809 5806 5804 5802 5799
5900 5900 5900 5900 5899 5899 5898 5898 5897 5895 5893 5892 5889 5886 5883 5881 5879 5877 5875 5872 5868 5864 5861 5858 5854 5850 5847 5844 5842 5838 5834 5830 5826 5823 5820 5816 5811 5808 5804 5801 5798 5794 5792 5790
5899 5899 5899 5899 5899 5898 5897 5897 5896 5893 5892 5890 5887 5884 5880 5878 5875 5873 5871 5869 5865 5861 5857 5854 5849 5844 5841 5838 5835 5832 5828 5825 5821 5818 5814 5810 5806 5802 5798 5794 5790 5786 5783 5781
5897 5897 5898 5897 5896 5896 5895 5894 5892 5890 5888 5885 5885 5880 5877 5874 5872 5869 5865 5862 5860 5858 5854 5850 5844 5840 5836 5832 5828 5825 5821 5818 5814 5811 5807 5803 5799 5795 5792 5787 5784 5780 5777 5773
5893 5893 5893 5894 5893 5892 5892 5890 5888 5887 5886 5882 5880 5879 5873 5871 5868 5864 5862 5858 5854 5851 5848 5844 5840 5835 5830 5826 5822 5818 5815 5812 5808 5804 5800 5796 5792 5789 5785 5781 5776 5773 5769 5766
5890 5890 5889 5888 5890 5889 5888 5886 5884 5883 5880 5879 5876 5873 5868 5866 5863 5860 5857 5853 5849 5845 5842 5838 5834 5829 5825 5820 5816 5812 5808 5805 5801 5797 5794 5789 5785 5782 5778 5775 5771 5767 5763 5759
5886 5886 5884 5883 5884 5884 5883 5882 5879 5878 5876 5875 5871 5873 5865 5862 5857 5855 5853 5849 5844 5839 5835 5832 5827 5822 5818 5813 5809 5805 5801 5798 5794 5790 5786 5782 5778 5773 5769 5767 5764 5761 5756 5752
5880 5880 5879 5877 5876 5877 5877 5876 5874 5873 5869 5866 5867 5862 5856 5856 5853 5849 5846 5842 5838 5834 5829 5824 5820 5816 5812 5807 5803 5798 5794 5791 5786 5782 5779 5775 5770 5766 5762 5758 5755 5753 5748 5744
5871 5872 5872 5871 5870 5868 5871 5869 5866 5866 5865 5861 5857 5857 5851 5849 5845 5842 5839 5835 5831 5826 5822 5817 5813 5808 5805 5800 5796 5792 5787 5783 5780 5776 5772 5768 5764 5759 5754 5751 5748 5744 5741 5737
5862 5862 5862 5862 5863 5861 5862 5864 5861 5861 5857 5854 5851 5848 5844 5842 5838 5833 5831 5826 5823 5819 5814 5810 5805 5800 5796 5792 5788 5784 5780 5775 5771 5767 5763 5760 5756 5753 5749 5743 5738 5735 5732 5729
5854 5853 5853 5853 5853 5851 5855 5854 5855 5853 5849 5846 5844 5840 5837 5833 5830 5826 5821 5818 5814 5810 5806 5801 5796 5791 5787 5783 5779 5775 5771 5766 5762 5758 5754 5750 5746 5743 5739 5736 5732 5727 5723 5719
5844 5843 5842 5842 5841 5842 5844 5842 5846 5840 5842 5836 5834 5830 5826 5822 5818 5816 5812 5808 5804 5799 5795 5790 5786 5782 5777 5773 5769 5765 5762 5757 5753 5749 5745 5740 5736 5732 5729 5726 5723 5719 5715 5711
5835 5834 5833 5832 5831 5829 5833 5832 5832 5829 5829 5826 5825 5819 5815 5811 5806 5801 5797 5795 5792 5788 5784 5780 5775 5772 5767 5763 5758 5755 5752 5748 5745 5741 5737 5733 5728 5725 5721 5717 5712 5708 5705 5701
5825 5823 5823 5821 5819 5820 5827 5823 5821 5819 5816 5814 5811 5808 5805 5799 5795 5789 5786 5784 5780 5777 5774 5770 5765 5760 5756 5752 5747 5744 5741 5738 5735 5731 5727 5723 5719 5715 5711 5706 5702 5699 5695 5691
5812 5812 5813 5813 5808 5808 5815 5813 5811 5808 5805 5801 5798 5796 5792 5787 5783 5777 5776 5774 5770 5766 5762 5758 5754 5750 5745 5741 5736 5733 5731 5727 5724 5720 5716 5712 5707 5702 5699 5695 5690 5686 5682 5679
5796 5804 5800 5800 5801 5800 5804 5799 5796 5794 5792 5788 5785 5782 5778 5774 5770 5767 5765 5761 5758 5754 5750 5746 5743 5739 5734 5731 5726 5723 5719 5716 5712 5709 5705 5701 5696 5691 5687 5682 5676 5671 5666 5662
5784 5787 5786 5787 5791 5791 5791 5786 5781 5778 5777 5776 5772 5766 5761 5759 5757 5755 5752 5748 5745 5741 5738 5734 5731 5728 5723 5719 5716 5713 5708 5704 5700 5696 5692 5687 5682 5677 5673 5668 5663 5658 5652 5648
5775 5769 5774 5775 5776 5780 5774 5766 5764 5765 5764 5762 5757 5753 5749 5746 5746 5741 5740 5736 5732 5728 5725 5720 5718 5714 5711 5707 5704 5700 5695 5689 5685 5681 5676 5671 5666 5661 5656 5652 5646 5641 5639 5633
5758 5758 5757 5760 5759 5758 5757 5745 5748 5747 5746 5744 5741 5739 5734 5731 5731 5728 5725 5721 5717 5714 5711 5708 5705 5701 5698 5693 5689 5684 5680 5675 5670 5666 5660 5655 5650 5646 5640 5635 5632 5625 5620 5616
Wind_Speed
3 2 1 1 1 2 2 3 3 4 5 6 6 5 5 6 6 7 8 8 9 8 10 11 11 13 14 15 15 15 15 15 16 18 18 18 18 18 18 19 19 19 18 16
7 6 6 4 3 2 3 3 4 5 5 7 8 9 9 9 9 10 12 12 12 11 12 12 14 15 16 17 17 17 17 17 17 18 18 18 19 19 20 20 20 21 20 18
12 10 9 8 7 6 6 5 5 5 6 7 7 10 11 11 12 14 15 16 16 17 16 17 18 18 19 20 21 22 23 23 23 22 23 22 22 22 22 23 22 22 22 22
12 11 10 9 9 8 8 8 7 7 7 7 9 11 11 13 14 15 17 18 19 20 21 21 23 24 25 25 26 26 28 29 28 28 28 28 28 27 27 28 27 26 25 25
9 8 7 7 7 7 7 7 8 9 8 8 8 10 12 13 13 14 16 17 19 21 22 23 25 26 27 28 30 31 32 34 35 34 34 34 34 32 32 32 31 32 31 30
6 5 5 5 5 5 7 7 8 9 10 10 11 11 11 13 13 14 16 16 18 18 19 20 22 24 25 26 29 31 33 35 37 37 37 38 38 39 37 37 36 35 35 35
5 4 3 3 4 5 7 7 7 8 9 12 13 15 16 16 17 18 18 19 18 19 19 17 19 22 23 24 26 27 28 30 32 34 35 36 36 38 39 39 40 39 39 38
3 1 1 2 2 4 5 6 7 8 10 12 14 14 18 19 20 19 20 20 20 21 22 20 21 23 25 24 23 24 26 26 27 29 31 32 34 34 34 36 37 38 39 40
2 2 1 2 2 4 4 5 8 8 10 11 13 18 19 19 19 21 20 19 20 22 23 24 25 27 27 27 26 26 26 27 26 27 28 30 31 30 30 31 32 34 37 39
4 3 3 3 4 8 8 9 10 11 12 13 15 20 24 23 25 26 25 22 22 23 24 23 27 30 30 31 31 29 30 29 29 30 30 30 30 30 31 30 31 33 34 36
5 5 6 6 6 8 9 11 13 15 19 21 20 26 28 30 30 32 32 32 30 27 25 24 27 31 31 33 34 33 32 33 33 33 35 34 32 31 30 30 30 30 30 32
9 10 11 10 11 12 12 14 17 18 19 23 26 28 33 35 35 36 36 36 37 34 30 29 28 29 31 31 34 35 34 34 35 36 36 36 33 31 30 29 30 30 29 30
15 15 17 18 18 17 18 19 21 21 24 24 26 32 36 36 35 35 35 38 39 37 33 32 31 32 32 33 33 35 36 35 35 35 36 35 33 31 32 31 31 32 32 31
20 20 23 25 22 21 20 21 23 23 27 27 30 23 32 36 38 35 36 39 41 41 40 38 36 35 34 34 34 35 37 35 35 36 36 35 35 33 30 31 31 32 33 33
23 24 26 28 28 25 24 25 26 25 28 31 29 33 38 37 38 39 41 42 43 43 41 39 36 35 32 32 34 37 38 38 38 37 37 35 35 34 31 31 31 32 33 33
30 29 29 30 31 32 27 27 31 28 29 36 35 32 38 39 40 41 44 46 46 46 44 42 40 37 37 35 35 37 39 39 39 39 39 38 37 34 32 32 34 33 34 35
34 34 34 36 35 37 35 28 32 34 34 35 37 39 41 41 41 45 45 46 47 47 46 44 42 40 38 38 37 38 38 39 38 38 37 38 38 39 39 35 33 33 35 36
34 36 37 38 37 41 37 37 31 32 36 38 37 38 41 44 44 46 48 48 48 49 47 45 43 42 41 40 40 40 40 41 38 37 39 38 36 37 39 39 37 35 35 35
38 39 40 42 43 43 40 42 37 37 35 37 39 41 44 48 51 50 49 48 48 48 48 46 44 44 43 42 42 42 42 43 42 42 41 37 35 36 37 37 39 40 40 38
40 41 44 45 48 52 47 46 43 44 46 44 41 44 47 51 55 58 58 54 52 48 49 49 48 45 45 43 43 43 43 44 45 45 44 43 39 39 39 41 40 39 40 39
45 46 47 48 54 57 47 46 49 50 51 49 49 50 51 56 60 64 63 58 57 55 53 51 49 47 46 45 45 46 44 45 45 46 46 43 43 41 43 43 44 45 42 40
52 53 54 52 58 60 51 51 53 52 52 53 54 54 58 61 63 67 64 61 59 58 56 52 49 47 45 44 46 48 47 46 45 45 43 43 42 43 47 49 48 50 51 48
62 57 56 60 59 59 56 58 59 57 57 59 59 60 63 65 68 69 65 62 60 58 56 52 47 44 41 40 43 44 46 48 45 44 45 48 49 51 52 55 52 53 52 52
65 62 64 61 62 58 58 60 63 63 63 62 64 66 69 71 71 67 63 63 60 58 55 49 45 43 41 41 44 45 49 50 49 48 51 52 54 55 57 58 59 58 55 55
65 69 67 66 64 59 63 68 67 67 66 66 69 73 74 71 64 63 62 63 62 58 53 49 46 46 45 47 51 51 49 52 54 58 60 61 61 61 60 60 61 59 61 59
70 69 70 67 66 67 68 74 72 72 72 72 74 73 64 62 61 62 64 61 58 54 51 49 48 48 51 52 53 54 55 56 60 59 63 67 64 63 61 57 59 62 61 60
Wind_Direction
105 89 55 353 305 301 322 330 337 331 339 336 331 318 305 315 323 324 323 333 336 326 307 311 313 312 312 315 316 318 323 327 332 335 337 336 331 326 321 320 320 323 324 327
96 86 73 62 46 8 340 312 306 299 297 301 300 303 303 304 305 300 301 304 307 307 307 306 303 303 302 302 305 308 311 312 315 319 322 324 324 322 320 317 316 315 317 317
86 82 76 73 68 63 53 37 11 352 327 312 298 301 303 304 302 302 303 305 305 301 298 295 293 293 294 297 296 300 303 303 305 307 307 309 311 312 313 311 310 309 309 309
92 87 79 74 68 63 54 44 39 31 15 356 344 325 329 333 322 315 310 306 301 298 296 296 296 295 293 294 292 294 296 298 299 299 300 301 302 303 305 306 307 306 304 302
100 96 88 76 68 64 52 43 34 27 23 11 354 345 351 344 341 336 327 320 313 309 305 302 299 297 297 297 296 294 293 294 295 296 298 297 297 298 298 298 300 304 304 302
101 85 75 69 60 50 34 26 24 18 10 357 345 344 342 342 342 338 334 333 326 319 314 312 307 302 300 296 295 295 294 294 295 295 295 295 295 294 294 294 295 296 299 300
116 105 96 75 65 67 57 46 36 28 9 352 342 345 342 340 340 340 338 336 332 328 322 314 301 297 296 295 296 296 295 296 299 301 301 300 296 293 292 292 292 294 292 292
142 137 113 104 89 68 69 55 33 29 14 1 352 348 345 342 343 345 344 338 333 326 326 321 310 310 309 304 302 299 299 298 302 304 308 308 304 301 298 295 292 292 290 290
212 219 296 324 348 12 24 42 24 13 10 0 347 341 341 342 343 346 348 342 334 323 317 319 314 312 309 310 299 294 295 297 303 309 311 311 309 304 303 301 297 292 290 290
238 262 280 304 335 344 350 350 356 347 347 353 351 338 333 335 338 342 341 336 327 322 317 315 308 306 309 308 306 299 292 293 299 303 307 310 306 307 307 306 302 298 297 296
270 285 296 306 325 331 334 335 341 343 341 341 350 337 338 335 338 338 337 338 337 334 324 313 304 307 307 305 305 304 297 291 294 300 305 309 306 304 306 306 303 303 302 299
265 282 290 292 303 308 313 314 318 323 327 331 338 340 332 333 332 334 334 334 336 335 327 317 314 312 309 306 303 304 304 301 298 300 302 305 303 304 303 300 299 300 298 299
269 275 280 285 290 296 302 307 308 314 314 319 324 329 328 331 329 329 329 330 331 333 328 322 319 314 309 306 305 304 303 302 301 303 306 305 303 304 303 301 299 298 300 300
266 271 274 280 284 289 293 298 301 307 307 310 312 319 313 322 324 325 325 325 326 326 326 323 318 314 311 308 308 306 305 304 302 305 306 303 301 301 300 298 298 297 297 297
263 265 271 277 283 286 290 293 293 301 301 306 308 312 310 315 319 322 324 323 322 323 322 321 320 316 314 311 309 307 306 304 302 303 306 303 301 300 294 294 294 293 292 293
265 268 271 273 278 283 284 291 292 297 298 304 303 306 306 309 312 316 319 321 321 322 322 321 320 319 317 311 308 307 308 307 305 304 308 308 303 297 292 296 296 295 292 290
266 269 270 273 277 279 282 283 288 293 294 295 300 302 304 306 311 313 316 317 317 318 321 321 320 318 315 311 308 305 305 307 306 305 306 308 309 303 295 290 288 291 291 290
264 268 273 277 279 279 285 289 292 293 292 295 296 297 299 302 304 310 314 315 315 316 317 319 319 318 317 312 308 304 301 302 304 302 303 304 305 304 298 295 291 289 290 289
266 271 278 280 284 286 290 295 303 297 296 297 297 298 298 302 306 310 310 312 315 315 314 314 316 317 316 311 305 303 301 299 300 300 300 299 302 305 301 302 300 294 293 289
268 273 277 282 285 286 294 300 302 299 300 295 298 298 301 303 305 308 310 313 314 313 311 310 311 312 312 309 303 301 300 300 298 299 301 300 299 304 304 302 301 300 296 289
269 272 277 279 283 283 292 295 297 298 297 302 301 300 303 304 306 306 308 311 312 313 313 312 310 309 308 306 302 300 299 300 300 300 300 298 295 299 303 304 303 301 300 294
268 270 273 279 281 284 289 293 293 294 299 298 298 301 301 302 304 303 305 306 310 312 311 310 310 309 308 306 302 301 302 299 300 299 297 294 293 290 291 294 295 296 298 295
267 274 275 275 281 283 289 290 292 293 294 296 299 298 298 300 301 302 304 305 308 309 308 307 308 308 310 308 304 304 303 302 298 295 290 290 290 290 289 290 289 288 291 289
270 272 273 276 281 284 289 289 288 288 291 296 297 297 298 298 299 300 302 303 305 304 303 303 304 305 307 306 307 308 304 299 295 291 289 286 284 285 288 290 291 291 289 290
270 272 275 277 281 285 283 281 283 285 289 290 291 293 294 295 296 297 299 300 300 299 297 298 301 299 301 304 308 307 303 300 295 293 287 284 282 282 284 286 289 291 292 290
270 274 276 281 281 282 282 281 285 286 286 287 292 295 291 293 295 295 297 297 295 294 294 298 299 299 299 299 299 300 298 296 298 303 299 288 285 286 285 286 287 291 290 292